Home   Weather   Växjö   Past weeks

Flag for Sweden Past Weather in Växjö, Sweden — Yesterday and Last 2 Weeks

Now
39 °F

Passing clouds.


Feels Like: 39 °F
Forecast: 47 / 65 °F
Wind: 1 mph from North

Location: Vaxjo Airport

Current Time: Sep 25, 2016 at 4:09:46 AM

Latest Report: Sep 25, 2016 at 3:20 AM


Visibility: N/A

Pressure: 30.21 "Hg

Humidity: 100%

Dew Point: 39 °F

Location of VäxjöLocation

Past Weather in Växjö — Graph

°F

Växjö Temperature Yesterday

Maximum temperature yesterday: 64 °F (at 2:50 PM)
Minimum temperature yesterday: 45 °F (at 5:50 AM)
Average temperature yesterday: 53 °F

High & Low Weather Summary for the Past Weeks

 TemperatureHumidityPressure
High81 °F (Sep 15, 2:20 PM)100% (Sep 10, 2:20 AM)30.24 "Hg (Sep 10, 2:20 AM)
Low37 °F (Sep 12, 4:50 AM)31% (Sep 14, 11:50 AM)29.95 "Hg (Sep 11, 7:20 AM)
Average57 °F77%30.13 "Hg
* Reported Sep 10 2:20 AM — Sep 25 2:50 AM, Växjö, Weather by CustomWeather, © 2016

Note: Actual official high and low records may vary slightly from our data, if they occured in-between our weather recording intervals... More about our weather records

Advertising

Växjö Weather History for the Previous 24 Hours

Scroll right to see more
 ConditionsComfort  
Time TempWeatherWind HumidityBarometerVisibility
2:50 AM
Sun, Sep 25
41 °FFog.1 mph100%30.21 "HgN/A
2:20 AM41 °FQuite cool.1 mph93%30.21 "HgN/A
1:50 AM43 °FQuite cool.3 mph93%30.21 "HgN/A
1:20 AM45 °FQuite cool.3 mph87%30.21 "HgN/A
12:50 AM45 °FQuite cool.2 mph93%30.21 "HgN/A
12:20 AM48 °FCool.3 mph87%30.21 "HgN/A
11:50 PM
Sat, Sep 24
50 °FPassing clouds.3 mph88%30.21 "HgN/A
11:20 PM52 °FPassing clouds.5 mph82%30.21 "HgN/A
10:50 PM52 °FPassing clouds.5 mph82%30.21 "HgN/A
10:20 PM52 °FPassing clouds.5 mph82%30.21 "HgN/A
9:50 PM52 °FPassing clouds.6 mph82%30.21 "HgN/A
9:20 PM50 °FPassing clouds.6 mph82%30.21 "HgN/A
8:50 PM50 °FCool.5 mph76%30.21 "HgN/A
8:20 PM48 °FCool.6 mph87%30.18 "HgN/A
7:50 PM50 °FCool.5 mph76%30.18 "HgN/A
7:20 PM54 °FCool.3 mph72%30.18 "HgN/A
6:50 PM55 °FCool.3 mph67%30.18 "HgN/A
6:20 PM59 °FRefreshingly cool.5 mph59%30.18 "HgN/A
5:50 PM61 °FRefreshingly cool.6 mph55%30.18 "HgN/A
5:20 PM63 °FScattered clouds.9 mph49%30.18 "HgN/A
4:50 PM64 °FPassing clouds.8 mph46%30.18 "HgN/A
4:20 PM64 °FPartly sunny.7 mph49%30.18 "HgN/A
3:50 PM64 °FBroken clouds.9 mph49%30.18 "HgN/A
3:20 PM64 °FScattered clouds.10 mph49%30.18 "HgN/A
2:50 PM64 °FScattered clouds.10 mph49%30.18 "HgN/A
2:20 PM63 °FPassing clouds.9 mph52%30.18 "HgN/A
1:50 PM63 °FPassing clouds.10 mph52%30.18 "HgN/A
1:20 PM63 °FPassing clouds.10 mph49%30.18 "HgN/A
12:50 PM61 °FPassing clouds.12 mph52%30.15 "HgN/A
7:50 AM46 °FCool.7 mph100%30.12 "HgN/A
7:20 AM45 °FQuite cool.6 mph100%30.12 "HgN/A
6:50 AM45 °FQuite cool.6 mph100%30.12 "HgN/A
6:20 AM45 °FQuite cool.6 mph100%30.12 "HgN/A
5:50 AM45 °FQuite cool.5 mph100%30.09 "HgN/A
5:20 AM46 °FCool.5 mph93%30.09 "HgN/A
4:50 AM46 °FPassing clouds.5 mph93%30.09 "HgN/A
4:20 AM46 °FCool.3 mph100%30.07 "HgN/A
Weather by CustomWeather, © 2016

See weather overviewHow to use our weather pages